レモン-パンスターズ彗星

C/2021 F1 ( Lemmon-PanSTARRS )

English version
Home page
Updated on July 4, 2022

---------------------------------------------------------------------

・ プロフィール

発見日 2021年3月19日
発見光度 20.9等、21.8等
発見者 Mt. Lemmon Survey, Pan-STARRS 1 telescope (Haleakala)

・ 写真集

・ 軌道要素

Epoch 2022 Jan. 21.0 TT = JDT 2459600.5
T 2022 Apr. 6.87351 TT                                  Rudenko
q   0.9954888            (2000.0)            P               Q
z  +0.0042347      Peri.  146.82232     +0.70298922     +0.60122326
 +/-0.0000018      Node   203.45141     +0.23496396     +0.30785884
e   0.9957844      Incl.  107.32441     +0.67126604     -0.73739645
From 505 observations 2021 Mar. 19-2022 Feb. 20, mean residual 0".4.

・ 星図

・ 光度変化

        H = 14.5  G = 0.15                       [    ,-210]  (              〜2021年 9月 8日)
        m1 = 7.0 + 5 logΔ + 20.0 log r(t - 20)  [-210,    ]  (2021年 9月 8日〜              )

---------------------------------------------------------------------

軌道要素はM.P.E.C. 2022-D36に掲載されたものです。
星図はステラナビゲータ Ver.10 (アストロアーツ) で作成したものです。
光度グラフはComet for Windowsで作成したものです。

---------------------------------------------------------------------

Copyright(C) Seiichi Yoshida (comet@aerith.net). All rights reserved.